GW5557 Weather Reports


Display with metric or nautical units.
time (UTC)temp
F
wind
direction
speed
MPH
gust
MPH
rain 1hr
in
rain 24hr
in
rain mn
in
humidity
%
barometer
mb
20260906131142 73 356 3.0 5.0 0.00 0.00 0.00 86 1003.1
20260906130121 73 20 3.0 8.0 0.00 0.00 0.00 87 1003.0
20260906125142 73 27 2.0 6.0 0.00 0.00 0.00 87 1003.0
20260906124121 73 6 3.0 6.0 0.00 0.00 0.00 88 1002.8
20260906123121 72 15 3.0 6.0 0.00 0.00 0.00 88 1002.7
20260906122122 73 16 3.0 6.0 0.00 0.00 0.00 88 1002.7
20260906121121 73 24 2.0 5.0 0.00 0.00 0.00 88 1002.7
20260906120121 72 18 3.0 7.0 0.00 0.00 0.00 88 1002.6
20260906115121 72 24 3.0 5.0 0.00 0.00 0.00 87 1002.6
20260906114121 73 49 1.0 4.0 0.00 0.00 0.00 87 1002.2
20260906113142 73 158 0.0 1.0 0.00 0.00 0.00 87 1002.1
20260906112121 73 43 0.0 3.0 0.00 0.00 0.00 86 1001.9
20260906111142 73 39 2.0 5.0 0.00 0.00 0.00 86 1001.9
20260906110122 73 22 2.0 4.0 0.00 0.00 0.00 86 1001.7
20260906105121 73 19 2.0 6.0 0.00 0.00 0.00 86 1001.7
20260906104121 73 16 3.0 7.0 0.00 0.00 0.00 86 1001.8
20260906103122 74 23 2.0 6.0 0.00 0.00 0.00 86 1001.9
20260906102121 75 315 0.0 0.0 0.00 0.00 0.00 84 1001.8
20260906101121 75 315 0.0 0.0 0.00 0.00 0.00 84 1001.6
20260906100121 75 315 0.0 0.0 0.00 0.00 0.00 84 1001.2
20260906095121 75 12 2.0 4.0 0.00 0.00 0.00 84 1001.2
20260906094122 75 40 2.0 5.0 0.00 0.00 0.00 84 1001.4
20260906093122 75 12 3.0 7.0 0.00 0.00 0.00 84 1001.2
20260906092121 76 37 3.0 7.0 0.00 0.00 0.00 84 1001.0
20260906091121 76 27 2.0 4.0 0.00 0.00 0.00 83 1001.2
20260906090121 76 17 2.0 7.0 0.00 0.00 0.00 83 1001.2
20260906085121 77 19 3.0 7.0 0.00 0.00 0.00 83 1001.2
20260906084121 77 11 3.0 7.0 0.00 0.00 0.00 83 1001.1
20260906083122 77 7 1.0 5.0 0.00 0.00 0.00 83 1001.0
20260906082123 77 31 1.0 5.0 0.00 0.00 0.00 82 1001.0
20260906081122 78 18 1.0 4.0 0.00 0.00 0.00 82 1001.0
20260906080121 78 24 2.0 5.0 0.00 0.00 0.00 82 1001.0
20260906075142 78 10 3.0 5.0 0.00 0.00 0.00 82 1001.0
20260906074121 79 7 1.0 5.0 0.00 0.00 0.00 81 1001.1
20260906073121 80 43 1.0 4.0 0.00 0.00 0.00 78 1001.0
20260906072121 80 12 2.0 4.0 0.00 0.00 0.00 79 1000.8
20260906071142 80 5 1.0 4.0 0.00 0.00 0.00 80 1000.8
20260906070143 80 113 0.0 0.0 0.00 0.00 0.00 80 1000.9
20260906065122 81 53 0.0 5.0 0.00 0.00 0.00 80 1000.9
20260906064121 81 353 1.0 4.0 0.00 0.00 0.00 79 1000.9
20260906063121 81 343 1.0 4.0 0.00 0.00 0.00 79 1000.9
20260906062142 82 27 1.0 2.0 0.00 0.00 0.00 79 1000.9
20260906061121 81 42 1.0 4.0 0.00 0.00 0.00 79 1001.1
20260906060121 82 15 0.0 4.0 0.00 0.00 0.00 79 1001.1
20260906055122 82 40 1.0 3.0 0.00 0.00 0.00 79 1001.1
20260906054143 82 32 1.0 4.0 0.00 0.00 0.00 78 1001.0
20260906053143 82 24 1.0 5.0 0.00 0.00 0.00 77 1001.0
20260906052121 83 14 1.0 4.0 0.00 0.00 0.00 77 1000.9
20260906051121 83 43 1.0 3.0 0.00 0.00 0.00 77 1000.7
20260906050122 83 17 0.0 3.0 0.00 0.00 0.00 76 1000.5
20260906045121 83 15 0.0 3.0 0.00 0.00 0.00 76 1000.5
20260906044121 84 1 0.0 2.0 0.00 0.00 0.00 75 1000.5
20260906043122 84 34 1.0 4.0 0.00 0.00 0.00 75 1000.4
20260906042143 84 8 0.0 2.0 0.00 0.00 0.00 74 1000.5
20260906041122 84 357 2.0 4.0 0.00 0.00 0.00 74 1000.1
20260906040121 84 14 1.0 3.0 0.00 0.00 0.00 73 1000.1
20260906035121 85 40 0.0 3.0 0.00 0.00 0.00 73 1000.1
20260906034121 85 4 2.0 4.0 0.00 0.00 0.00 72 1000.1
20260906033121 85 45 0.0 2.0 0.00 0.00 0.00 72 1000.0
20260906032121 86 18 0.0 3.0 0.00 0.00 0.00 70 999.9
20260906031122 86 33 1.0 4.0 0.00 0.00 0.00 70 999.8
20260906030122 86 35 2.0 5.0 0.00 0.00 0.00 69 999.7
20260906025144 86 39 1.0 3.0 0.00 0.00 0.00 69 999.7
20260906024122 86 180 0.0 0.0 0.00 0.00 0.00 68 999.5
20260906023121 86 19 0.0 2.0 0.00 0.00 0.00 67 999.4
20260906022122 86 23 0.0 2.0 0.00 0.00 0.00 67 999.2
20260906021122 87 315 0.0 0.0 0.00 0.00 0.00 66 999.2
20260906020121 87 45 0.0 0.0 0.00 0.00 0.00 65 999.0
20260906015122 87 23 0.0 0.0 0.00 0.00 0.00 65 999.0
20260906014122 88 45 0.0 0.0 0.00 0.00 0.00 62 998.8
20260906013122 88 45 0.0 0.0 0.00 0.00 0.00 62 998.7
20260906012122 88 314 1.0 4.0 0.00 0.00 0.00 61 998.7
20260906011121 89 352 1.0 3.0 0.00 0.00 0.00 59 998.4
20260906010121 89 360 0.0 0.0 0.00 0.00 0.00 57 998.4
20260906005121 92 68 0.0 0.0 0.00 0.00 0.00 53 998.4
20260906004143 92 68 0.0 0.0 0.00 0.00 0.00 53 998.5
20260906003123 92 23 0.0 0.0 0.00 0.00 0.00 53 998.2
20260906002121 93 23 0.0 0.0 0.00 0.00 0.00 52 998.2
20260906001123 93 45 0.0 0.0 0.00 0.00 0.00 51 998.2
20260906000122 94 45 0.0 0.0 0.00 0.00 0.00 51 998.2
20260905235121 94 23 0.0 3.0 0.00 0.00 0.00 51 998.2
20260905234122 94 113 0.0 2.0 0.00 0.00 0.00 51 998.2
20260905233122 94 28 2.0 5.0 0.00 0.00 0.00 52 998.4
20260905232122 94 6 3.0 6.0 0.00 0.00 0.00 51 998.4
20260905231123 95 16 4.0 9.0 0.00 0.00 0.00 48 998.4
20260905230122 96 22 4.0 6.0 0.00 0.00 0.00 47 998.4
20260905225122 96 352 4.0 5.0 0.00 0.00 0.00 46 998.4
20260905224122 97 5 5.0 9.0 0.00 0.00 0.00 46 998.2
20260905223143 98 348 4.0 7.0 0.00 0.00 0.00 46 998.2
20260905222122 100 11 3.0 6.0 0.00 0.00 0.00 44 998.2
20260905221121 101 340 2.0 5.0 0.00 0.00 0.00 42 998.2
20260905220144 102 332 5.0 8.0 0.00 0.00 0.00 40 998.1
20260905215122 103 323 4.0 8.0 0.00 0.00 0.00 38 998.1
20260905214123 103 335 5.0 8.0 0.00 0.00 0.00 39 998.1
20260905213122 102 350 6.0 8.0 0.00 0.00 0.00 39 998.1
20260905212122 101 344 6.0 9.0 0.00 0.00 0.00 40 998.4
20260905211143 101 355 6.0 8.0 0.00 0.00 0.00 41 998.6
20260905210122 100 3 5.0 8.0 0.00 0.00 0.00 42 998.4
20260905205122 102 360 0.0 0.0 0.00 0.00 0.00 39 998.4
20260905204143 102 346 3.0 6.0 0.00 0.00 0.00 39 998.6
20260905203122 102 16 4.0 6.0 0.00 0.00 0.00 39 998.6
20260905202122 104 351 5.0 7.0 0.00 0.00 0.00 37 998.8
20260905201122 106 331 5.0 7.0 0.00 0.00 0.00 36 998.7
20260905200122 106 356 3.0 7.0 0.00 0.00 0.00 35 998.9
20260905195122 105 301 4.0 10.0 0.00 0.00 0.00 36 998.9
20260905194122 105 312 4.0 7.0 0.00 0.00 0.00 38 999.1
20260905193122 104 335 3.0 6.0 0.00 0.00 0.00 38 999.2
20260905192122 105 345 5.0 8.0 0.00 0.00 0.00 40 999.4
20260905191123 105 313 4.0 5.0 0.00 0.00 0.00 39 999.4
20260905190122 105 34 2.0 5.0 0.00 0.00 0.00 40 999.7
20260905185122 104 351 1.0 6.0 0.00 0.00 0.00 41 999.7
20260905184123 104 333 1.0 5.0 0.00 0.00 0.00 42 999.9
20260905183143 104 23 2.0 5.0 0.00 0.00 0.00 42 1000.0
20260905182122 103 2 2.0 5.0 0.00 0.00 0.00 43 1000.1
20260905181122 102 208 1.0 2.0 0.00 0.00 0.00 45 1000.2
20260905180122 100 45 0.0 0.0 0.00 0.00 0.00 46 1000.1
20260905175122 100 45 0.0 0.0 0.00 0.00 0.00 46 1000.1
20260905174122 100 113 0.0 3.0 0.00 0.00 0.00 46 1000.2
20260905173122 100 293 0.0 0.0 0.00 0.00 0.00 47 1000.4
20260905172122 100 293 0.0 0.0 0.00 0.00 0.00 47 1000.4
20260905171122 100 293 0.0 0.0 0.00 0.00 0.00 47 1000.6
20260905170122 100 143 1.0 4.0 0.00 0.00 0.00 47 1000.9
20260905165122 99 327 1.0 4.0 0.00 0.00 0.00 48 1000.9
20260905164121 98 314 2.0 5.0 0.00 0.00 0.00 49 1000.9
20260905163123 98 270 0.0 0.0 0.00 0.00 0.00 50 1001.0
20260905162121 98 270 0.0 0.0 0.00 0.00 0.00 50 1001.1
20260905161122 98 285 2.0 6.0 0.00 0.00 0.00 50 1001.0
20260905160121 96 288 3.0 6.0 0.00 0.00 0.00 52 1001.2
20260905155121 96 9 2.0 6.0 0.00 0.00 0.00 52 1001.2
20260905154123 93 225 0.0 0.0 0.00 0.00 0.00 56 1001.2
20260905153122 93 225 0.0 0.0 0.00 0.00 0.00 56 1001.2
20260905152122 93 225 0.0 3.0 0.00 0.00 0.00 56 1001.2
20260905151122 93 282 3.0 5.0 0.00 0.00 0.00 56 1001.2
20260905150121 94 303 3.0 5.0 0.00 0.00 0.00 55 1001.1
20260905145121 92 230 3.0 5.0 0.00 0.00 0.00 57 1001.1
20260905144121 91 248 3.0 6.0 0.00 0.00 0.00 58 1001.2
20260905143121 91 294 3.0 5.0 0.00 0.00 0.00 58 1001.1
20260905142121 91 249 2.0 5.0 0.00 0.00 0.00 60 1001.1
20260905141122 89 269 2.0 4.0 0.00 0.00 0.00 62 1001.1
20260905140124 89 256 2.0 5.0 0.00 0.00 0.00 62 1001.1
20260905135123 90 291 2.0 4.0 0.00 0.00 0.00 61 1001.1
20260905134121 88 247 0.0 4.0 0.00 0.00 0.00 63 1001.0
20260905133121 88 203 0.0 0.0 0.00 0.00 0.00 62 1000.9
20260905132121 87 248 0.0 0.0 0.00 0.00 0.00 65 1000.9